User: anonymous   Login
Location: Unspecified
(0.0000°N, 0.0000°E)
Time: 14:33:08
(UTC+02:00)
Language:

BREEZE-M DEB (TANK) - Orbit

View from above orbital plane
View from above orbital plane
View from above satellite
View from above satellite

Ground track
Ground track

The orbit data is extracted from the following two-line orbital elements,

1 33374U 08044B   15181.63100595  .00000108  00000-0  12819-3 0  9994
2 33374 049.4656 066.4580 5427507 014.7577 131.4188 04.85756235119097
Epoch (UTC): 30 June 2015 15:08:38
Eccentricity: 0.5427507
inclination: 49.4656°
perigee height: 356 km
apogee height: 16342 km
right ascension of ascending node: 66.4580°
argument of perigee: 14.7577°
revolutions per day: 4.85756235
mean anomaly at epoch: 131.4188°
orbit number at epoch: 11909

The dashed part of the orbit path shows where the satellite is in the earth's shadow,  

DLR